Regional Weather Roundup
Issued by NWS Charleston, SC

Current Version | Previous Version | Text Only | Print | Product List | Glossary Off
Versions: 1 2 3 4 5 6 7 8 9 10 11 12 13 14 15 16 17 18 19 20 21 22 23 24 25 26 27 28 29 30 31 32 33 34 35 36 37 38 39 40 41 42 43 44 45 46 47 48 49 50

929
ASUS42 KCHS 200012
RWRCHS

REGIONAL WEATHER ROUNDUP
NATIONAL WEATHER SERVICE CHARLESTON SC
700 PM EST THU JAN 19 2017

NOTE: "FAIR" INDICATES FEW OR NO CLOUDS BELOW 12,000 FEET WITH NO
SIGNIFICANT WEATHER AND/OR OBSTRUCTIONS TO VISIBILITY.

NOT ALL STATIONS ARE QUALITY CONTROLLED. USE DATA WITH CAUTION...
ESPECIALLY DEWPOINT OBSERVATIONS.

SCZ027-030-031-034>040-042>050-200100-
...SOUTHEAST SOUTH CAROLINA...

CITY           SKY/WX    TMP DP  RH WIND       PRES   REMARKS
N CHARLESTON   PTCLDY    59  52  77 E7        30.00S
6HR MIN TEMP:  59; 6HR MAX TEMP:  72;

WATERFRONT PRK   N/A     59  56  89 NE5       30.00S
MOUNT PLEASANT FAIR      57  54  88 CALM      30.01S
JOHNS ISLAND   FAIR      57  55  94 CALM      30.00S
PINOPOLIS        N/A     63  54  72 CALM      29.90S
MONCKS CORNER  FAIR      59  52  77 S3        30.00S
SUMMERVILLE    FAIR      63  54  72 CALM      30.00S
BEAUFORT MCAS  PTCLDY    61  56  83 SE7       29.99F
6HR MIN TEMP:  61; 6HR MAX TEMP:  71;

BEAUFORT ARPT  FAIR      59  55  88 E5        29.98F
HILTON HEAD IS CLEAR     57  55  94 NE7       30.00F
WALTERBORO     PTCLDY    61  55  82 SE6       29.99F
ALLENDALE      FAIR      63  54  72 CALM      29.96F

...SOUTHERN MIDLANDS AND PEE DEE...

CITY           SKY/WX    TMP DP  RH WIND       PRES   REMARKS
GEORGETOWN     FAIR      52  50  93 CALM      30.03S
KINGSTREE      FAIR      54  48  82 CALM      29.99F
ORANGEBURG     PTCLDY    59  51  75 E3        29.98F
6HR MIN TEMP:  59; 6HR MAX TEMP:  69;

BARNWELL       FAIR      63  54  72 CALM      29.98S
AIKEN          FAIR      61  46  59 E5        30.00F
MANNING        FAIR      55  45  67 CALM      30.00R
COLUMBIA       PTCLDY    61  45  55 CALM      29.97F
6HR MIN TEMP:  61; 6HR MAX TEMP:  70;

SUMTER         CLOUDY    56  46  69 CALM      29.97F
6HR MIN TEMP:  56; 6HR MAX TEMP:  69;

FLORENCE       PTCLDY    59  47  64 E3        30.00F
6HR MIN TEMP:  59; 6HR MAX TEMP:  69;

MYRTLE BEACH   CLEAR     59  48  67 E7        30.04R
N MYRTLE BEACH MOCLDY    54  51  90 E6        30.02S
6HR MIN TEMP:  54; 6HR MAX TEMP:  60;


$$

GAZ063-065-086>088-099>101-113>116-118-119-134>141-150-200100-
...SOUTHEAST GEORGIA...

CITY           SKY/WX    TMP DP  RH WIND       PRES   REMARKS
SAVANNAH ARPT  PTCLDY    60  55  83 E7        29.99S
6HR MIN TEMP:  60; 6HR MAX TEMP:  79;

HUNTER AAF     CLEAR     58  58 100 E10       29.97S
6HR MIN TEMP:  58; 6HR MAX TEMP:  78;

FORT STEWART   CLEAR     63  56  79 E6        29.95S
6HR MIN TEMP:  63; 6HR MAX TEMP:  78;

STATESBORO     PTCLDY    66  59  78 SE7       29.96S
SYLVANIA       CLEAR    N/A N/A N/A SE5       29.97F
CLAXTON        FAIR     N/A N/A N/A CALM      29.95F

...CSRA...CENTRAL AND FAR SOUTHEAST GEORGIA...

CITY           SKY/WX    TMP DP  RH WIND       PRES   REMARKS
THOMSON        CLOUDY    64  51  63 SE3       29.98F
AUGUSTA-BUSH   CLOUDY    67  50  54 E7        29.94F
6HR MIN TEMP:  66; 6HR MAX TEMP:  77;

AUGUSTA-DANIEL MOCLDY    68  46  45 E7        29.95F
SWAINSBORO     FAIR      68  57  68 SE3       29.95F
VIDALIA        CLEAR     66  63  88 SE5       29.94F
EASTMAN        FAIR      69  53  55 E3        29.94F
HAZLEHURST     FAIR      69  63  80 SE3       29.93F
ALMA           PTCLDY    66  62  87 E3        29.93F
6HR MIN TEMP:  64; 6HR MAX TEMP:  77;

WAYCROSS       CLEAR     70  67  89 S3        29.94F
JESUP          FAIR      64  61  88 CALM      29.96F
BAXLEY         FAIR      68  64  88 CALM      29.94F
BRUNSWICK      CLEAR     64  61  88 SE3       29.98F
SAINT SIMONS   PTCLDY    65  58  78 SE8       29.97F
6HR MIN TEMP:  65; 6HR MAX TEMP:  74;


$$

SCZ027-028-034-036>038-045-046-048>050-GAZ119-141-200100-
...LAKE AND SUPPLEMENTAL COASTAL OBSERVATIONS...

STATION/POSITION TIME  TEMP    WIND        PRES    WAVE   SWELL
                       AIR SEA DIR/SP/G            HT/PER HT/PER/DIR
                 (UTC) (F)     (DEG/KT/KT) (MB)    (FT/S) (FT/S/D)
WINYAH BAY       2245   55      60/  3     1016.0
LAKE MURRAY      2320   62      CALM  /  2 1014.9S
ACE BASIN NERRS  2245   63      60/  1     1016.0
FORT PULASKI     2342   58 58   90/  8/ 10 1016.0R
SAPELO ISLAND    2300   67     150/  5     1015.0

$$

ANZ835-935-AMZ111-154-330-350-352-354-370-450-454-472-200100-
...C-MAN AND BUOY OBSERVATIONS...

STATION/POSITION TIME  TEMP    WIND        PRES    WAVE   SWELL
                       AIR SEA DIR/SP/G            HT/PER HT/PER/DIR
                 (UTC) (F)     (DEG/KT/KT) (MB)    (FT/S) (FT/S/D)
BUOY 41004       2250   68 72   70/ 14/ 16 1015.0    4/ 5   2/ 90/ 9
BUOY 41008       2250   61 61   90/  4/  6 1015.4    1
FOLLY BEACH CMAN 0000   57      50/ 10/ 12 1016.4S
CAPERS NEARSHORE 2308   55 55   50/ 10/ 12 1016.1R
FRIPP NEARSHORE  2308   58 58   70/ 10/ 12 1015.6S


STATION/POSITION TIME  TEMP    WIND        PRES    WAVE   SWELL
                       AIR SEA DIR/SP/G            HT/PER HT/PER/DIR
                 (UTC) (F)     (DEG/KT/KT) (MB)    (FT/S) (FT/S/D)
5E ST. MARYS GA  2330      64                N/A     1
FRYING PAN BUOY  2350   63 71   60/ 10/ 12 1016.5R   3/ 9   3/ 90/ 9
BUOY 41025       2350   54 77   20/  6/ 10 1017.7R   5/10   5/ 70/10
CAPE LOOKOUT NC  0000   55      40/  4/  6 1016.9R
BUOY 41002       2350   67 71  360/  4/  8 1016.4R   6/10   7/ 30/10
BUOY 41010       NOT AVBL
ST AUGUSTINE FL  0000   63 64  170/  6/  7 1016.2R


$$




USA.gov is the U.S. government's official web portal to all federal, state and local government web resources and services.